This is the latest recevied weather packets stored in our database for station/object K7DC. If no packets are shown the sender has not sent any weather packets the latest 10 day(s).
| Time | Temp. | Humidity | Pressure | Rain* | Wind** | Luminosity | Snow |
|---|---|---|---|---|---|---|---|
| 1777543891 | 16.11° C | 33% | 1013.2 hPa | 0 mm | - | 0 W/m² | - |
| 1777543587 | 16.11° C | 32% | 1013.2 hPa | 0 mm | - | 0 W/m² | - |
| 1777543283 | 16.11° C | 34% | 1012.6 hPa | 0 mm | - | 0 W/m² | - |
| 1777542979 | 16.11° C | 28% | 1012.8 hPa | 0 mm | - | 0 W/m² | - |
| 1777542675 | 16.11° C | 25% | 1013 hPa | 0 mm | - | 0 W/m² | - |
| 1777542372 | 16.67° C | 26% | 1012.7 hPa | 0 mm | - | 0 W/m² | - |
| 1777542069 | 16.67° C | 26% | 1012.9 hPa | 0 mm | - | 0 W/m² | - |
| 1777541766 | 16.67° C | 25% | 1012.9 hPa | 0 mm | - | 0 W/m² | - |
| 1777541463 | 16.67° C | 26% | 1013 hPa | 0 mm | - | 0 W/m² | - |
| 1777541159 | 16.67° C | 24% | 1013.1 hPa | 0 mm | - | 0 W/m² | - |
| 1777540856 | 17.22° C | 24% | 1012.9 hPa | 0 mm | - | 0 W/m² | - |
| 1777540553 | 17.22° C | 25% | 1013.2 hPa | 0 mm | - | 0 W/m² | - |
| 1777540249 | 16.67° C | 26% | 1013.1 hPa | 0 mm | - | 0 W/m² | - |
| 1777539944 | 16.67° C | 26% | 1013.3 hPa | 0 mm | - | 0 W/m² | - |
| 1777539641 | 16.67° C | 25% | 1013.1 hPa | 0 mm | - | 0 W/m² | - |
| 1777539338 | 16.67° C | 25% | 1013.1 hPa | 0 mm | - | 0 W/m² | - |
| 1777539035 | 16.67° C | 24% | 1013.2 hPa | 0 mm | - | 0 W/m² | - |
| 1777538731 | 17.22° C | 25% | 1013.3 hPa | 0 mm | - | 0 W/m² | - |
| 1777538426 | 17.22° C | 25% | 1013.1 hPa | 0 mm | - | 0 W/m² | - |
| 1777538121 | 17.22° C | 25% | 1013.2 hPa | 0 mm | - | 0 W/m² | - |
| 1777537817 | 17.22° C | 26% | 1013.5 hPa | 0 mm | - | 0 W/m² | - |
| 1777537514 | 17.78° C | 24% | 1013.2 hPa | 0 mm | - | 0 W/m² | - |
| 1777537209 | 17.78° C | 24% | 1013.2 hPa | 0 mm | - | 0 W/m² | - |
| 1777536906 | 17.78° C | 24% | 1013.9 hPa | 0 mm | - | 0 W/m² | - |
| 1777536604 | 17.78° C | 25% | 1013.5 hPa | 0 mm | - | 0 W/m² | - |
* Rain latest hour (hover to see other rain measurements)
** Current wind speed in m/s (hover to see current wind gust speed)